パンスターズ彗星

P/2014 U4 ( PanSTARRS ) 2021

English version
Home page
Updated on November 6, 2020

---------------------------------------------------------------------

・ プロフィール

・ 軌道要素

Epoch 2021 Jan. 26.0 TT = JDT 2459240.5
T 2021 Feb. 13.50279 TT                                 MPCW
q   1.8761014            (2000.0)            P               Q
n   0.15009972     Peri.  347.73693     +0.99970366     +0.00776532
a   3.5065723      Node    11.89070     +0.00469675     +0.86842163
e   0.4649757      Incl.    6.42905     -0.02388583     +0.49576565
P   6.57
From 61 observations 2014 Sept. 2-Nov. 17, mean residual 0".5.

・ 光度変化

        m1 = 17.0 + 5 logΔ + 10.0 log r

---------------------------------------------------------------------

軌道要素はM.P.E.C. 2014-X44に掲載されたものです。
光度グラフはComet for Windowsで作成したものです。

---------------------------------------------------------------------

Copyright(C) Seiichi Yoshida (comet@aerith.net). All rights reserved.